Regional Weather Roundup
Issued by NWS

Home | Current Version | Previous Version | Graphics & Text | Print | Product List | Glossary On
Versions: 1 2 3 4 5 6 7 8 9 10 11 12 13 14 15 16 17 18 19 20 21 22 23 24 25 26 27
000
ASUS45 KCYS 272210
RWRWY

WYOMING REGIONAL WEATHER ROUNDUP
NATIONAL WEATHER SERVICE CHEYENNE WY
400 PM MDT TUE JUN 27 2017

NOTE:  "FAIR" INDICATES FEW OR NO CLOUDS BELOW 12,000 FEET
WITH NO SIGNIFICANT WEATHER AND/OR OBSTRUCTIONS TO VISIBILITY.

WYZ001-272300-
YELLOWSTONE NATIONAL PARK

CITY           SKY/WX    TMP DP  RH WIND       PRES   REMARKS
LK YELLOWSTONE   N/A     48  46  93 CALM      30.14S
W YELLOWSTONE  NOT AVBL

$$
WYZ002>013-054>058-071-098>099-272300-
NORTHERN WYOMING

CITY           SKY/WX    TMP DP  RH WIND       PRES   REMARKS
JACKSON        PTSUNNY   70  43  37 NW8       30.04S
CODY           FAIR      69  44  40 W20G28    29.93R
GREYBULL       PTSUNNY   67  51  56 NW12      29.84F
WORLAND          N/A     65  52  62 SE12      29.82
SHERIDAN       RAIN      62  52  69 SW7G25    29.83R
BUFFALO        TSTM      59  49  69 W29G46    29.93R
GILLETTE       FAIR      84  43  23 NW12G28   29.75F
NEWCASTLE      FAIR      86  32  14 NW13      29.71F

$$
WYZ014>020-022>026-101>103-272300-
CENTRAL WYOMING

CITY           SKY/WX    TMP DP  RH WIND       PRES   REMARKS
BIG PINEY      FAIR      72  40  31 N15G22    30.05F
PINEDALE       FAIR      59  45  58 N14G30    30.07R
DUBOIS         FAIR      61  37  41 NW20G29   30.03F
LANDER         FAIR      71  39  31 NW17G28   29.94R
RIVERTON       PTSUNNY   65  43  44 NW18G31   29.94F
CASPER         SUNNY     86  36  16 W24G33    29.83F
DOUGLAS        FAIR      78  48  34 NW16      29.82F

$$
WYZ021-027>030-104>119-272300-
SOUTHERN WYOMING

CITY           SKY/WX    TMP DP  RH WIND       PRES   REMARKS
EVANSTON       FAIR      77  33  20 W21G30    30.10S
KEMMERER         N/A     73  34  23 W25G36    30.08S
FORT BRIDGER   FAIR      80  25  13 W25G38    30.09F
ROCK SPRINGS   PTSUNNY   78  31  17 W29G44    30.00S
DIXON          MOCLDY    61  48  60 N14G31    30.03R
RAWLINS        TSTM      70  40  33 SW31G41   30.02R
SARATOGA       FAIR      77  32  19 W15G25    30.03S
LARAMIE        FAIR      81  35  19 NW29G37   29.99R
CHEYENNE       FAIR      89  24   9 NW18G35   29.87F
TORRINGTON     FAIR      85  47  26 E12       29.70F
PINE BLUFFS    FAIR      86  39  19 MISG      29.79F

$$




USA.gov is the U.S. government's official web portal to all federal, state and local government web resources and services.